User: anonymous   Login
Location: Unspecified
(0.0000°N, 0.0000°E)
Time: 14:48:41
(UTC+00:00)
Language:

ICEYE-X2 - Orbit

View from above orbital plane
View from above orbital plane
View from above satellite
View from above satellite

Ground track
Ground track

The orbit data is extracted from the following two-line orbital elements,

1 43761U 18099D   21334.23053528  .00000435  00000-0  44466-4 0  9999
2 43761  97.6496  41.0605 0013510 210.5140 149.5299 14.95431208163245
Epoch (UTC): 30 November 2021 05:31:58
Eccentricity: 0.0013510
inclination: 97.6496°
perigee height: 571 km
apogee height: 590 km
right ascension of ascending node: 41.0605°
argument of perigee: 210.5140°
revolutions per day: 14.95431208
mean anomaly at epoch: 149.5299°
orbit number at epoch: 16324

The dashed part of the orbit path shows where the satellite is in the earth's shadow,  

DLR